Hourly Weather Ganja

Today, 13 August, Thursday

Time Temperature Precipitation Wind Pressure Humidity
00:00 +25°C° 0 mm 3 mps 723 mmHg 59%
01:00 +25°C° 0 mm 3 mps 723 mmHg 60%
02:00 +24°C° 0 mm 2 mps 723 mmHg 62%
03:00 +23°C° 0 mm 2 mps 723 mmHg 65%
04:00 +23°C° 0 mm 2 mps 723 mmHg 66%
05:00 +23°C° 0 mm 1 mps 723 mmHg 66%
06:00 +23°C° 0 mm 1 mps 723 mmHg 67%
07:00 +24°C° 0 mm 2 mps 723 mmHg 64%
08:00 +25°C° 0 mm 2 mps 723 mmHg 61%
09:00 +26°C° 0 mm 2 mps 722 mmHg 58%
10:00 +27°C° 0 mm 2 mps 722 mmHg 56%
11:00 +28°C° 0 mm 1 mps 722 mmHg 53%
12:00 +29°C° 0 mm 1 mps 722 mmHg 51%
13:00 +30°C° 0.1 mm 1 mps 721 mmHg 49%
14:00 +31°C° 0.1 mm 1 mps 721 mmHg 46%
15:00 +31°C° 0.1 mm 1 mps 720 mmHg 44%
16:00 +31°C° 0.1 mm 1 mps 720 mmHg 45%
17:00 +31°C° 0.1 mm 1 mps 720 mmHg 46%
18:00 +31°C° 0.1 mm 2 mps 721 mmHg 47%
19:00 +30°C° 0.4 mm 2 mps 721 mmHg 51%
20:00 +28°C° 0.4 mm 2 mps 721 mmHg 55%
21:00 +27°C° 0.4 mm 2 mps 722 mmHg 59%
22:00 +27°C° 0 mm 2 mps 722 mmHg 59%
23:00 +26°C° 0 mm 2 mps 722 mmHg 58%

Tomorrow, 14 August, Friday

Time Temperature Precipitation Wind Pressure Humidity
00:00 +26°C° 0 mm 3 mps 722 mmHg 58%
01:00 +26°C° 0 mm 3 mps 722 mmHg 59%
02:00 +25°C° 0 mm 3 mps 722 mmHg 60%
03:00 +25°C° 0 mm 3 mps 722 mmHg 62%
04:00 +24°C° 0 mm 3 mps 722 mmHg 63%
05:00 +24°C° 0 mm 3 mps 722 mmHg 64%
06:00 +24°C° 0 mm 3 mps 722 mmHg 65%
07:00 +25°C° 0.1 mm 3 mps 722 mmHg 61%
08:00 +26°C° 0.1 mm 4 mps 722 mmHg 57%
09:00 +27°C° 0.1 mm 4 mps 721 mmHg 54%
10:00 +28°C° 0 mm 4 mps 721 mmHg 52%
11:00 +28°C° 0 mm 3 mps 721 mmHg 50%
12:00 +29°C° 0 mm 3 mps 721 mmHg 48%
13:00 +29°C° 0.3 mm 3 mps 720 mmHg 48%
14:00 +30°C° 0.3 mm 2 mps 720 mmHg 47%
15:00 +30°C° 0.3 mm 1 mps 719 mmHg 47%
16:00 +29°C° 0.3 mm 1 mps 719 mmHg 50%
17:00 +29°C° 0.3 mm 1 mps 719 mmHg 52%
18:00 +28°C° 0.3 mm 1 mps 719 mmHg 54%
19:00 +28°C° 0.2 mm 1 mps 720 mmHg 56%
20:00 +27°C° 0.2 mm 1 mps 720 mmHg 58%
21:00 +27°C° 0.2 mm 1 mps 721 mmHg 59%
22:00 +26°C° 0.2 mm 2 mps 721 mmHg 59%
23:00 +26°C° 0.2 mm 3 mps 721 mmHg 59%

Day after tomorrow, 15 August, Saturday

Time Temperature Precipitation Wind Pressure Humidity
00:00 +25°C° 0.2 mm 3 mps 721 mmHg 59%
01:00 +25°C° 0.1 mm 4 mps 721 mmHg 60%
02:00 +23°C° 0.1 mm 5 mps 720 mmHg 62%
03:00 +23°C° 0.1 mm 5 mps 720 mmHg 64%
04:00 +22°C° 0 mm 5 mps 720 mmHg 63%
05:00 +22°C° 0 mm 5 mps 720 mmHg 63%
06:00 +22°C° 0 mm 4 mps 720 mmHg 63%
07:00 +23°C° 0 mm 5 mps 721 mmHg 60%
08:00 +23°C° 0 mm 5 mps 721 mmHg 57%
09:00 +25°C° 0 mm 5 mps 721 mmHg 54%
10:00 +26°C° 0 mm 5 mps 721 mmHg 50%
11:00 +27°C° 0 mm 5 mps 721 mmHg 46%
12:00 +28°C° 0 mm 5 mps 721 mmHg 42%
13:00 +28°C° 0 mm 4 mps 721 mmHg 41%
14:00 +29°C° 0 mm 3 mps 721 mmHg 39%
15:00 +30°C° 0 mm 2 mps 721 mmHg 38%
16:00 +29°C° 0 mm 3 mps 721 mmHg 41%
17:00 +28°C° 0 mm 3 mps 721 mmHg 45%
18:00 +27°C° 0 mm 3 mps 721 mmHg 49%
19:00 +27°C° 0 mm 3 mps 722 mmHg 50%
20:00 +26°C° 0 mm 3 mps 722 mmHg 50%
21:00 +26°C° 0 mm 3 mps 723 mmHg 51%
22:00 +25°C° 0 mm 4 mps 723 mmHg 53%
23:00 +25°C° 0 mm 4 mps 723 mmHg 55%

16 August, Sunday

Time Temperature Precipitation Wind Pressure Humidity
00:00 +23°C° 0 mm 4 mps 723 mmHg 57%
01:00 +22°C° 0 mm 3 mps 723 mmHg 60%
02:00 +22°C° 0 mm 3 mps 723 mmHg 62%
03:00 +21°C° 0 mm 2 mps 723 mmHg 65%
04:00 +21°C° 0 mm 2 mps 723 mmHg 67%
05:00 +21°C° 0 mm 3 mps 723 mmHg 70%
06:00 +21°C° 0 mm 3 mps 723 mmHg 72%
07:00 +21°C° 0 mm 3 mps 723 mmHg 71%
08:00 +22°C° 0 mm 4 mps 723 mmHg 69%
09:00 +22°C° 0 mm 4 mps 723 mmHg 67%
10:00 +23°C° 0 mm 4 mps 723 mmHg 63%
11:00 +23°C° 0 mm 5 mps 723 mmHg 59%
12:00 +25°C° 0 mm 5 mps 723 mmHg 54%
13:00 +25°C° 0 mm 5 mps 723 mmHg 53%
14:00 +26°C° 0 mm 4 mps 723 mmHg 51%
15:00 +27°C° 0 mm 4 mps 722 mmHg 49%
16:00 +26°C° 0 mm 4 mps 722 mmHg 50%
17:00 +26°C° 0 mm 3 mps 722 mmHg 52%
18:00 +25°C° 0 mm 3 mps 722 mmHg 54%
19:00 +24°C° 0 mm 2 mps 723 mmHg 56%
20:00 +24°C° 0 mm 1 mps 723 mmHg 58%
21:00 +23°C° 0 mm 1 mps 723 mmHg 61%
22:00 +23°C° 0 mm 1 mps 723 mmHg 61%
23:00 +23°C° 0 mm 1 mps 723 mmHg 62%

17 August, Monday

Time Temperature Precipitation Wind Pressure Humidity
00:00 +23°C° 0 mm 2 mps 723 mmHg 63%
01:00 +21°C° 0 mm 2 mps 723 mmHg 65%
02:00 +21°C° 0 mm 2 mps 723 mmHg 67%
03:00 +21°C° 0 mm 2 mps 723 mmHg 69%
04:00 +21°C° 0.2 mm 2 mps 723 mmHg 71%
05:00 +20°C° 0.2 mm 2 mps 724 mmHg 74%
06:00 +20°C° 0.2 mm 2 mps 724 mmHg 76%
07:00 +20°C° 0 mm 2 mps 724 mmHg 75%
08:00 +20°C° 0 mm 3 mps 724 mmHg 75%
09:00 +21°C° 0 mm 3 mps 724 mmHg 74%
10:00 +21°C° 0 mm 4 mps 724 mmHg 71%
11:00 +22°C° 0 mm 4 mps 725 mmHg 68%
12:00 +22°C° 0 mm 4 mps 725 mmHg 65%
13:00 +23°C° 0 mm 4 mps 725 mmHg 64%
14:00 +23°C° 0 mm 4 mps 725 mmHg 63%
15:00 +23°C° 0 mm 4 mps 725 mmHg 62%
16:00 +23°C° 0 mm 4 mps 724 mmHg 63%
17:00 +22°C° 0 mm 4 mps 724 mmHg 65%
18:00 +22°C° 0 mm 4 mps 724 mmHg 67%
19:00 +22°C° 0 mm 3 mps 725 mmHg 69%
20:00 +21°C° 0 mm 2 mps 725 mmHg 71%
21:00 +21°C° 0 mm 2 mps 726 mmHg 73%
22:00 +21°C° 0 mm 2 mps 725 mmHg 73%
23:00 +21°C° 0 mm 2 mps 725 mmHg 73%

18 August, Tuesday

Time Temperature Precipitation Wind Pressure Humidity
00:00 +21°C° 0 mm 2 mps 725 mmHg 73%
01:00 +20°C° 0 mm 2 mps 725 mmHg 74%
02:00 +20°C° 0 mm 2 mps 725 mmHg 75%
03:00 +20°C° 0 mm 2 mps 725 mmHg 77%
04:00 +19°C° 0 mm 2 mps 725 mmHg 77%
05:00 +19°C° 0 mm 2 mps 724 mmHg 78%
06:00 +19°C° 0 mm 2 mps 724 mmHg 78%
07:00 +20°C° 0 mm 2 mps 724 mmHg 74%
08:00 +21°C° 0 mm 3 mps 724 mmHg 70%
09:00 +22°C° 0 mm 3 mps 724 mmHg 66%
10:00 +24°C° 0 mm 3 mps 723 mmHg 64%
11:00 +24°C° 0 mm 3 mps 723 mmHg 61%
12:00 +25°C° 0 mm 3 mps 722 mmHg 58%
13:00 +26°C° 0 mm 2 mps 722 mmHg 55%
14:00 +27°C° 0 mm 2 mps 722 mmHg 52%
15:00 +27°C° 0 mm 2 mps 721 mmHg 49%
16:00 +27°C° 0 mm 2 mps 721 mmHg 49%
17:00 +27°C° 0 mm 2 mps 721 mmHg 49%
18:00 +27°C° 0 mm 2 mps 721 mmHg 49%
19:00 +26°C° 0 mm 2 mps 721 mmHg 53%
20:00 +25°C° 0 mm 1 mps 721 mmHg 56%
21:00 +24°C° 0 mm 1 mps 722 mmHg 59%
22:00 +23°C° 0 mm 1 mps 721 mmHg 61%
23:00 +23°C° 0 mm 2 mps 721 mmHg 62%
Show more